Satellite: NCUBE2
Catalog number: 28897
Epoch time:      07284.24519742
Element set:     373
Inclination:      098.1174 deg
RA of node:       178.6984 deg
Eccentricity:    0.0017982
Arg of perigee:   109.7172 deg
Mean anomaly:     250.5969 deg
Mean motion:   14.59755979 rev/day
Decay rate:       1.20e-06 rev/day^2
Epoch rev:            9630
Checksum:              358

Satellite: FCAL
Catalog number: 29667
Epoch time:      07284.77294504
Element set:     396
Inclination:      051.6318 deg
RA of node:       201.0363 deg
Eccentricity:    0.0013515
Arg of perigee:   086.0624 deg
Mean anomaly:     274.1939 deg
Mean motion:   15.92619280 rev/day
Decay rate:     2.2381e-04 rev/day^2
Epoch rev:            4655
Checksum:              308

Satellite: FALCON
Catalog number: 30776
Epoch time:      07283.92373891
Element set:    0160
Inclination:      035.4336 deg
RA of node:       231.0214 deg
Eccentricity:    0.0001658
Arg of perigee:   358.6434 deg
Mean anomaly:     001.4285 deg
Mean motion:   15.02778978 rev/day
Decay rate:       2.84e-06 rev/day^2
Epoch rev:           03247
Checksum:              295

Satellite: MAST
Catalog number: 31126
Epoch time:      07283.71447339
Element set:    0156
Inclination:      098.0732 deg
RA of node:       352.7320 deg
Eccentricity:    0.0095395
Arg of perigee:   028.5270 deg
Mean anomaly:     332.1094 deg
Mean motion:   14.53368931 rev/day
Decay rate:       3.43e-06 rev/day^2
Epoch rev:           02563
Checksum:              289

Satellite: CAPE1
Catalog number: 31130
Epoch time:      07283.61894378
Element set:    0138
Inclination:      098.0732 deg
RA of node:       352.2284 deg
Eccentricity:    0.0103320
Arg of perigee:   029.9311 deg
Mean anomaly:     330.7738 deg
Mean motion:   14.51890759 rev/day
Decay rate:       2.02e-06 rev/day^2
Epoch rev:           02536
Checksum:              285

/EX






More information about the Keps mailing list